Weather History for Mountain Home, AR

Change the Weather History Date:

Monday, December 23, 2013

  Actual Average (KHRO) Record (KHRO)
Temperature  
Mean Temperature 26 °F 36 °F  
Max Temperature 33 °F 46 °F 72 °F (1964)
Min Temperature 19 °F 27 °F -11 °F (1989)
Degree Days  
Heating Degree Days 39 29  
Month to date heating degree days 603  
Since 1 July heating degree days 1367  
Cooling Degree Days 0 0  
Month to date cooling degree days 0  
Year to date cooling degree days 1416  
Moisture  
Dew Point 18 °F    
Average Humidity 73    
Maximum Humidity 88    
Minimum Humidity 48    
Precipitation  
Precipitation 0.00 in 0.10 in 1.38 in (1979)
Month to date precipitation 2.45  
Year to date precipitation 43.39  
Snow  
Snow 0.00 in 0.10 in 13.00 in (1966)
Month to date snowfall 0.5  
Since 1 July snowfall 1.0  
Snow Depth -    
Sea Level Pressure  
Sea Level Pressure 30.49 in    
Wind  
Wind Speed 6 mph (NNW)    
Max Wind Speed 8 mph    
Max Gust Speed -    
Visibility 8 miles    
Events Snow    
T = Trace of Precipitation, MM = Missing Value Source: NWS Daily Summary

Daily Weather History Graph

Daily Weather History Graph

Search for Another Location

Airport:

Trip Planner

Search our weather history database for the weather conditions in past years. The results will help you decide how hot, cold, wet, or windy it might be!

Date:

Astronomy

Dec. 23, 2013 Rise Set
Actual Time 7:18 AM CST 4:59 PM CST
Civil Twilight 6:49 AM CST 5:28 PM CST
Nautical Twilight 6:17 AM CST 6:00 PM CST
Astronomical Twilight 5:46 AM CST 6:32 PM CST
Moon 10:59 PM CST (12/23) 10:53 AM CST (12/23)
Length of Visible Light 10h 38m
Length of Day
9h 40m
Waning Gibbous, 68% of the Moon is Illuminated
Dec 23
Waning Gibbous
Dec 25
Last Quarter
Jan 1
New
Jan 7
First Quarter
Jan 15
Full

Hourly Weather History & Observations

Time (CST) Temp. Windchill Dew Point Humidity Pressure Visibility Wind Dir Wind Speed Gust Speed Precip Events Conditions
12:53 AM 28.0 °F 20.8 °F 18.0 °F 66% 30.34 in 10.0 mi NNW 6.9 mph - N/A   Overcast
1:53 AM 27.0 °F 19.5 °F 19.0 °F 72% 30.36 in 9.0 mi Variable 6.9 mph - N/A   Overcast
2:53 AM 27.0 °F 19.5 °F 19.0 °F 72% 30.39 in 10.0 mi NNW 6.9 mph - N/A   Overcast
3:53 AM 26.1 °F 19.4 °F 18.0 °F 71% 30.39 in 10.0 mi Variable 5.8 mph - N/A   Overcast
4:53 AM 26.1 °F 18.4 °F 19.0 °F 75% 30.40 in 10.0 mi North 6.9 mph - N/A   Overcast
5:53 AM 24.1 °F 19.7 °F 17.1 °F 75% 30.43 in 10.0 mi NNW 3.5 mph - N/A   Overcast
6:36 AM 21.2 °F 14.9 °F 15.8 °F 80% 30.41 in 10.0 mi NNW 4.6 mph - N/A   Scattered Clouds
6:53 AM 21.9 °F 14.5 °F 15.1 °F 75% 30.45 in 10.0 mi NNW 5.8 mph - N/A   Scattered Clouds
7:03 AM 21.2 °F 12.6 °F 15.8 °F 80% 30.42 in 10.0 mi NNW 6.9 mph - N/A   Mostly Cloudy
7:53 AM 21.0 °F 12.4 °F 14.0 °F 74% 30.49 in 8.0 mi NNW 6.9 mph - N/A   Partly Cloudy
8:53 AM 23.0 °F 15.8 °F 14.0 °F 68% 30.52 in 8.0 mi Variable 5.8 mph - N/A   Clear
9:53 AM 26.1 °F 20.5 °F 15.1 °F 63% 30.55 in 9.0 mi Variable 4.6 mph - N/A   Clear
10:53 AM 28.9 °F 22.8 °F 14.0 °F 54% 30.54 in 9.0 mi North 5.8 mph - N/A   Clear
11:53 AM 30.0 °F 23.2 °F 14.0 °F 51% 30.51 in 9.0 mi Variable 6.9 mph - N/A   Clear
12:53 PM 32.0 °F 27.5 °F 15.1 °F 50% 30.49 in 9.0 mi NNW 4.6 mph - N/A   Clear
1:53 PM 33.1 °F 26.9 °F 15.1 °F 48% 30.49 in 10.0 mi West 6.9 mph - N/A   Clear
2:53 PM 32.0 °F 25.6 °F 16.0 °F 52% 30.49 in 9.0 mi Variable 6.9 mph - N/A   Overcast
3:53 PM 32.0 °F 26.4 °F 16.0 °F 52% 30.51 in 9.0 mi Variable 5.8 mph - N/A   Overcast
4:53 PM 28.9 °F 22.8 °F 18.0 °F 64% 30.52 in 6.0 mi NW 5.8 mph - N/A   Haze
5:23 PM 28.4 °F 21.2 °F 21.2 °F 74% 30.49 in 1.8 mi NNW 6.9 mph - 0.00 in Snow Light Snow
5:44 PM 26.6 °F 21.2 °F 23.0 °F 86% 30.49 in 2.5 mi Variable 4.6 mph - 0.00 in Snow Light Snow
5:53 PM 27.0 °F 20.5 °F 23.0 °F 85% 30.53 in 2.0 mi NNW 5.8 mph - 0.00 in Snow Light Snow
6:06 PM 26.6 °F 18.2 °F 21.2 °F 80% 30.50 in 1.5 mi NNW 8.1 mph - 0.00 in Snow Light Snow
6:43 PM 26.6 °F 20.0 °F 21.2 °F 80% 30.51 in 2.0 mi NW 5.8 mph - 0.00 in Snow Light Snow
6:53 PM 26.1 °F 21.9 °F 23.0 °F 88% 30.55 in 2.0 mi Variable 3.5 mph - 0.00 in Snow Light Snow
7:12 PM 26.6 °F 21.2 °F 23.0 °F 86% 30.52 in 3.0 mi NNW 4.6 mph - 0.00 in Snow Light Snow
7:26 PM 26.6 °F 20.0 °F 21.2 °F 80% 30.52 in 6.0 mi NNW 5.8 mph - 0.00 in Snow Light Snow
7:43 PM 24.8 °F 19.1 °F 21.2 °F 86% 30.52 in 8.0 mi NNW 4.6 mph - 0.00 in   Overcast
7:53 PM 25.0 °F 19.3 °F 21.0 °F 85% 30.56 in 8.0 mi NNW 4.6 mph - 0.00 in   Overcast
8:53 PM 24.1 °F 16.0 °F 17.1 °F 75% 30.57 in 9.0 mi NNW 6.9 mph - N/A   Scattered Clouds
9:02 PM 23.0 °F 17.0 °F 17.6 °F 80% 30.54 in 9.0 mi NW 4.6 mph - N/A   Mostly Cloudy
9:16 PM 23.0 °F 18.4 °F 17.6 °F 80% 30.53 in 9.0 mi NW 3.5 mph - N/A   Scattered Clouds
9:53 PM 21.0 °F - 16.0 °F 81% 30.57 in 9.0 mi Calm Calm - N/A   Clear
10:53 PM 19.9 °F 13.4 °F 15.1 °F 81% 30.58 in 9.0 mi NW 4.6 mph - N/A   Clear
11:49 PM 19.4 °F 11.5 °F 15.8 °F 86% 30.55 in 9.0 mi NW 5.8 mph - N/A   Mostly Cloudy
11:53 PM 19.0 °F 12.3 °F 15.1 °F 85% 30.58 in 9.0 mi Variable 4.6 mph - N/A   Mostly Cloudy